Location: Cleveland
(41.4990°N, 81.6960°W)
Time: 20:21:12
(UTC-04:00)

ISS - Pass Details

Date: 30 September 2021
Orbit: 417 x 423 km, 51.6° (Epoch: 18 October)

Event Time Altitude Azimuth Distance (km) Brightness Sun altitude
Rises 19:39:02 0° 307° (NW) 2,364 1.1 -6.3°
Reaches altitude 10° 19:41:39 10° 328° (NNW) 1,500 -0.5 -6.8°
Maximum altitude 19:43:59 17° 12° (NNE) 1,136 -1.7 -7.2°
Drops below altitude 10° 19:46:18 10° 56° (NE) 1,500 -1.4 -7.7°
Enters shadow 19:46:55 - 63° (ENE) 1,682 -1.2 -7.8°
